Clinton-Sherman, OK

12:52 PM CDT on October 17, 2017 (GMT -0500)
Clinton-Sherman

Weather History for KCSM - August, 2014

Change the Weather History Date:

Wednesday, August 20, 2014

  Actual Average Record
Temperature  
Mean Temperature 87 °F -  
Max Temperature 100 °F 92 °F 102 °F (2010)
Min Temperature 75 °F 68 °F 57 °F (2012)
Cooling Degree Days 22    
Growing Degree Days 37 (Base 50)    
Moisture  
Dew Point 61 °F    
Average Humidity 44    
Maximum Humidity 64    
Minimum Humidity 25    
Precipitation  
Precipitation 0.00 in - - ()
Sea Level Pressure  
Sea Level Pressure 29.81 in    
Wind  
Wind Speed 16 mph (South)    
Max Wind Speed 24 mph    
Max Gust Speed 37 mph    
Visibility 10 miles    
Events      
Averages and records for this station are not official NWS values.
T = Trace of Precipitation, MM = Missing Value Source: NWS Daily Summary

Daily Weather History Graph

Daily Weather History Graph

Search for Another Location

Airport or City:

Trip Planner

Search our weather history database for the weather conditions in past years. The results will help you decide how hot, cold, wet, or windy it might be!

Date:

Astronomy

Aug. 20, 2014 Rise Set
Actual Time 7:00 AM CDT 8:19 PM CDT
Civil Twilight 6:33 AM CDT 8:46 PM CDT
Nautical Twilight 6:01 AM CDT 9:17 PM CDT
Astronomical Twilight 5:28 AM CDT 9:50 PM CDT
Moon 2:45 AM CDT (8/20) 5:02 PM CDT (8/20)
Length of Visible Light 14h 12m
Length of Day
13h 19m
Waning Crescent, 20% of the Moon is Illuminated
Aug 20
Waning Crescent
Aug 25
New
Sep 2
First Quarter
Sep 8
Full
Sep 15
Last Quarter

Hourly Weather History & Observations

Time (CDT) Temp. Heat Index Dew Point Humidity Pressure Visibility Wind Dir Wind Speed Gust Speed Precip Events Conditions
12:53 AM 80.1 °F 81.7 °F 64.0 °F 58% 29.81 in 10.0 mi South 13.8 mph - N/A   Clear
1:53 AM 79.0 °F - 64.0 °F 60% 29.81 in 10.0 mi South 10.4 mph - N/A   Clear
2:53 AM 78.1 °F - 64.0 °F 62% 29.80 in 10.0 mi South 12.7 mph - N/A   Clear
3:53 AM 77.0 °F - 63.0 °F 62% 29.80 in 10.0 mi South 12.7 mph - N/A   Clear
4:53 AM 77.0 °F - 63.0 °F 62% 29.80 in 10.0 mi South 12.7 mph - N/A   Clear
5:53 AM 77.0 °F - 62.1 °F 60% 29.81 in 10.0 mi South 12.7 mph - N/A   Partly Cloudy
6:53 AM 75.9 °F - 63.0 °F 64% 29.82 in 10.0 mi South 12.7 mph - N/A   Clear
7:53 AM 75.9 °F - 62.1 °F 62% 29.84 in 10.0 mi South 15.0 mph - N/A   Clear
8:53 AM 79.0 °F - 63.0 °F 58% 29.85 in 10.0 mi South 18.4 mph - N/A   Clear
9:53 AM 84.9 °F 87.1 °F 66.0 °F 53% 29.84 in 10.0 mi SSW 23.0 mph 29.9 mph N/A   Clear
10:53 AM 87.1 °F 89.2 °F 66.0 °F 49% 29.85 in 10.0 mi SSW 21.9 mph - N/A   Clear
11:53 AM 91.0 °F 93.0 °F 64.9 °F 42% 29.84 in 10.0 mi South 20.7 mph 31.1 mph N/A   Clear
12:53 PM 93.9 °F 96.1 °F 64.9 °F 38% 29.83 in 10.0 mi South 24.2 mph 29.9 mph N/A   Clear
1:53 PM 97.0 °F 98.3 °F 63.0 °F 32% 29.81 in 10.0 mi South 19.6 mph 26.5 mph N/A   Clear
2:53 PM 98.1 °F 97.7 °F 59.0 °F 27% 29.80 in 10.0 mi South 20.7 mph 29.9 mph N/A   Partly Cloudy
3:53 PM 99.0 °F 98.1 °F 57.9 °F 25% 29.78 in 10.0 mi South 20.7 mph 36.8 mph N/A   Clear
4:53 PM 99.0 °F 98.1 °F 57.9 °F 25% 29.77 in 10.0 mi South 24.2 mph 33.4 mph N/A   Partly Cloudy
5:53 PM 98.1 °F 96.8 °F 57.0 °F 25% 29.76 in 10.0 mi South 21.9 mph - N/A   Partly Cloudy
6:53 PM 97.0 °F 96.1 °F 57.9 °F 27% 29.75 in 10.0 mi SSE 21.9 mph 26.5 mph N/A   Partly Cloudy
7:53 PM 93.9 °F 93.2 °F 59.0 °F 31% 29.77 in 10.0 mi SSE 20.7 mph 27.6 mph N/A   Clear
8:53 PM 90.0 °F 88.8 °F 57.9 °F 34% 29.79 in 10.0 mi SSE 15.0 mph - N/A   Clear
9:53 PM 88.0 °F 86.1 °F 55.0 °F 32% 29.81 in 10.0 mi SSE 15.0 mph - N/A   Clear
10:53 PM 86.0 °F 84.5 °F 55.0 °F 35% 29.84 in 10.0 mi SSE 19.6 mph 26.5 mph N/A   Clear
11:53 PM 84.9 °F 83.9 °F 57.0 °F 38% 29.84 in 10.0 mi South 18.4 mph - N/A   Clear